Regional Weather Roundup
Issued by NWS

Home | Current Version | Previous Version | Graphics & Text | Print | Product List | Glossary On
Versions: 1 2 3 4 5 6 7 8 9 10 11 12 13 14 15 16 17 18 19 20 21 22 23 24 25 26 27 28 29 30 31 32 33 34 35 36 37 38 39 40 41 42 43 44 45 46 47 48 49 50
000
ASUS43 KLMK 312210
RWRKY
KENTUCKY REGIONAL WEATHER ROUNDUP
NATIONAL WEATHER SERVICE LOUISVILLE KY
500 PM EST SAT JAN 31 2015

NOTE "FAIR" INDICATES FEW OR NO CLOUDS BELOW 12,000 FEET
WITH NO SIGNIFICANT WEATHER AND/OR OBSTRUCTIONS TO VISIBILITY.

KYZ001>023-026-027-061>063-070>075-312300-
WESTERN AND SOUTH CENTRAL KENTUCKY

CITY           SKY/WX    TMP DP  RH WIND       PRES   REMARKS
PADUCAH        CLOUDY    44  23  43 SW5       30.28R
HENDERSON      CLOUDY    43  23  45 E7        30.26F
OWENSBORO      CLOUDY    42  24  49 SE9       30.28F
HOPKINSVILLE   CLOUDY    46  20  34 E8        30.25F
BOWLING GREEN  CLOUDY    44  22  41 NE3       30.30F
GLASGOW        CLOUDY    42  21  43 CALM      30.29F
$$

KYZ024-025-028>034-038-045-046-053-312300-
NORTH CENTRAL KENTUCKY

CITY           SKY/WX    TMP DP  RH WIND       PRES   REMARKS
LOUISVILLE/SDF CLOUDY    42  19  39 W9        30.31R
LOUISVILLE/LOU CLOUDY    42  20  41 SW9       30.31R
FORT KNOX      CLOUDY    41  21  45 S3        30.28S
$$

KYZ035>037-039>044-047>052-055>060-089>105-312300-
NORTHEAST KENTUCKY

CITY           SKY/WX    TMP DP  RH WIND       PRES   REMARKS
LEXINGTON      CLOUDY    40  16  37 SW7       30.28F
COVINGTON      CLOUDY    38  20  48 SW6       30.26F WCI  33
FRANKFORT      CLOUDY    40  18  41 SW8       30.27F WCI  34
$$

KYZ054-064>069-076>088-106>120-312300-
SOUTHEAST KENTUCKY

CITY           SKY/WX    TMP DP  RH WIND       PRES   REMARKS
JACKSON        CLOUDY    40  12  32 W3        30.28S
LONDON         MOCLDY    43   6  21 CALM      30.29F
SOMERSET       CLOUDY    43  12  28 W6        30.31S
MIDDLESBORO    PTCLDY    44  12  28 S7        30.30F
MONTICELLO     CLOUDY    44  16  32 CALM      30.32F
$$




USA.gov is the U.S. government's official web portal to all federal, state and local government web resources and services.